| time (UTC) | temp C | wind direction | speed KPH | gust KPH | rain 1hr cm | rain 24hr cm | rain mn cm | humidity % | barometer mb |
| 20260509064542 | 3 | 162 | 0.0 | 0.0 | 0.00 | 0.10 | 0.00 | 65 | 1010.0 |
| 20260509064044 | 3 | 162 | 0.0 | 0.0 | 0.00 | 0.10 | 0.00 | 65 | 1010.0 |
| 20260509063540 | 3 | 162 | 0.0 | 0.0 | 0.00 | 0.10 | 0.00 | 65 | 1010.2 |
| 20260509063039 | 3 | 162 | 0.0 | 0.0 | 0.00 | 0.10 | 0.00 | 65 | 1010.3 |
| 20260509062538 | 3 | 162 | 0.0 | 0.0 | 0.00 | 0.10 | 0.00 | 64 | 1010.4 |
| 20260509062037 | 3 | 162 | 0.0 | 4.8 | 0.00 | 0.10 | 0.00 | 64 | 1010.5 |
| 20260509061539 | 3 | 162 | 0.0 | 4.8 | 0.00 | 0.10 | 0.00 | 64 | 1010.5 |
| 20260509061035 | 3 | 162 | 0.0 | 0.0 | 0.00 | 0.10 | 0.00 | 63 | 1010.6 |
| 20260509060535 | 3 | 162 | 0.0 | 0.0 | 0.00 | 0.10 | 0.00 | 63 | 1010.7 |
| 20260509060046 | 4 | 162 | 0.0 | 1.6 | 0.00 | 0.10 | 0.00 | 61 | 1010.9 |
| 20260509055535 | 4 | 162 | 0.0 | 3.2 | 0.00 | 0.10 | 0.00 | 61 | 1010.8 |
| 20260509055036 | 4 | 162 | 1.6 | 4.8 | 0.00 | 0.10 | 0.00 | 61 | 1010.7 |
| 20260509054533 | 4 | 168 | 1.6 | 4.8 | 0.00 | 0.10 | 0.00 | 61 | 1010.7 |
| 20260509054032 | 4 | 167 | 1.6 | 4.8 | 0.00 | 0.10 | 0.00 | 62 | 1010.9 |
| 20260509053531 | 3 | 174 | 1.6 | 4.8 | 0.00 | 0.10 | 0.00 | 62 | 1010.9 |
| 20260509053033 | 3 | 171 | 1.6 | 4.8 | 0.00 | 0.10 | 0.00 | 63 | 1011.0 |
| 20260509052530 | 3 | 166 | 0.0 | 3.2 | 0.00 | 0.10 | 0.00 | 63 | 1011.2 |
| 20260509052027 | 3 | 164 | 0.0 | 0.0 | 0.00 | 0.10 | 0.00 | 63 | 1011.2 |
| 20260509051527 | 3 | 164 | 0.0 | 0.0 | 0.00 | 0.10 | 0.00 | 63 | 1011.3 |
| 20260509051025 | 4 | 164 | 0.0 | 0.0 | 0.00 | 0.10 | 0.00 | 63 | 1011.3 |
| 20260509050524 | 4 | 164 | 0.0 | 0.0 | 0.00 | 0.10 | 0.00 | 62 | 1011.2 |
| 20260509050024 | 4 | 164 | 0.0 | 0.0 | 0.00 | 0.10 | 0.00 | 63 | 1011.3 |
| 20260509045523 | 4 | 164 | 0.0 | 1.6 | 0.00 | 0.10 | 0.00 | 63 | 1011.4 |
| 20260509045023 | 4 | 164 | 0.0 | 3.2 | 0.00 | 0.10 | 0.00 | 63 | 1011.4 |
| 20260509044532 | 4 | 164 | 0.0 | 3.2 | 0.00 | 0.10 | 0.00 | 63 | 1011.4 |
| 20260509044021 | 4 | 144 | 0.0 | 1.6 | 0.00 | 0.10 | 0.00 | 64 | 1011.4 |
| 20260509043521 | 4 | 144 | 0.0 | 0.0 | 0.00 | 0.10 | 0.00 | 64 | 1011.5 |
| 20260509043030 | 4 | 144 | 0.0 | 0.0 | 0.00 | 0.10 | 0.00 | 63 | 1011.5 |
| 20260509042521 | 4 | 144 | 0.0 | 0.0 | 0.00 | 0.10 | 0.00 | 64 | 1011.5 |
| 20260509042020 | 4 | 144 | 0.0 | 0.0 | 0.00 | 0.10 | 0.00 | 63 | 1011.6 |
| 20260509041520 | 5 | 144 | 0.0 | 0.0 | 0.00 | 0.10 | 0.00 | 62 | 1011.6 |
| 20260509041019 | 5 | 144 | 0.0 | 0.0 | 0.00 | 0.10 | 0.00 | 62 | 1011.5 |
| 20260509040517 | 5 | 144 | 0.0 | 0.0 | 0.00 | 0.10 | 0.00 | 60 | 1011.5 |
| 20260509040017 | 5 | 144 | 0.0 | 0.0 | 0.00 | 0.10 | 0.00 | 59 | 1011.4 |
| 20260509035516 | 5 | 144 | 0.0 | 1.6 | 0.00 | 0.10 | 0.10 | 57 | 1011.4 |
| 20260509035016 | 5 | 144 | 0.0 | 1.6 | 0.00 | 0.10 | 0.10 | 56 | 1011.4 |
| 20260509034518 | 6 | 124 | 0.0 | 1.6 | 0.00 | 0.10 | 0.10 | 54 | 1011.5 |
| 20260509034017 | 6 | 124 | 0.0 | 1.6 | 0.00 | 0.10 | 0.10 | 53 | 1011.5 |
| 20260509033516 | 6 | 124 | 0.0 | 1.6 | 0.00 | 0.10 | 0.10 | 55 | 1011.5 |
| 20260509033016 | 5 | 124 | 0.0 | 0.0 | 0.00 | 0.10 | 0.10 | 56 | 1011.6 |
| 20260509032520 | 5 | 136 | 0.0 | 1.6 | 0.00 | 0.10 | 0.10 | 57 | 1011.6 |
| 20260509032017 | 5 | 133 | 0.0 | 1.6 | 0.00 | 0.10 | 0.10 | 57 | 1011.7 |
| 20260509031518 | 5 | 134 | 0.0 | 0.0 | 0.00 | 0.10 | 0.10 | 56 | 1011.6 |
| 20260509031015 | 5 | 134 | 0.0 | 1.6 | 0.00 | 0.10 | 0.10 | 56 | 1011.6 |
| 20260509030515 | 5 | 134 | 0.0 | 1.6 | 0.00 | 0.10 | 0.10 | 58 | 1011.6 |
| 20260509030015 | 5 | 137 | 0.0 | 1.6 | 0.00 | 0.10 | 0.10 | 58 | 1011.6 |
| 20260509025514 | 5 | 122 | 0.0 | 1.6 | 0.00 | 0.10 | 0.10 | 59 | 1011.7 |
| 20260509025014 | 4 | 122 | 0.0 | 1.6 | 0.00 | 0.10 | 0.10 | 60 | 1011.7 |
| 20260509024516 | 4 | 191 | 0.0 | 0.0 | 0.00 | 0.10 | 0.10 | 60 | 1011.7 |
| 20260509024014 | 4 | 191 | 0.0 | 0.0 | 0.00 | 0.10 | 0.10 | 61 | 1011.8 |
| 20260509023515 | 4 | 191 | 0.0 | 0.0 | 0.00 | 0.10 | 0.10 | 61 | 1011.8 |
| 20260509023014 | 4 | 191 | 0.0 | 0.0 | 0.00 | 0.10 | 0.10 | 61 | 1011.7 |
| 20260509022514 | 4 | 191 | 0.0 | 0.0 | 0.00 | 0.10 | 0.10 | 61 | 1011.7 |
| 20260509022014 | 4 | 191 | 0.0 | 0.0 | 0.00 | 0.10 | 0.10 | 61 | 1011.8 |
| 20260509021514 | 4 | 191 | 0.0 | 0.0 | 0.00 | 0.10 | 0.10 | 61 | 1011.8 |
| 20260509021012 | 4 | 191 | 0.0 | 0.0 | 0.00 | 0.10 | 0.10 | 60 | 1011.9 |
| 20260509020514 | 5 | 191 | 0.0 | 0.0 | 0.00 | 0.10 | 0.10 | 60 | 1012.1 |
| 20260509020013 | 5 | 191 | 0.0 | 0.0 | 0.00 | 0.10 | 0.10 | 60 | 1012.0 |
| 20260509015513 | 5 | 191 | 0.0 | 0.0 | 0.00 | 0.10 | 0.10 | 59 | 1012.1 |
| 20260509015014 | 5 | 191 | 0.0 | 0.0 | 0.00 | 0.10 | 0.10 | 58 | 1011.9 |
| 20260509014512 | 5 | 191 | 0.0 | 0.0 | 0.00 | 0.10 | 0.10 | 58 | 1012.0 |
| 20260509014012 | 5 | 191 | 0.0 | 0.0 | 0.00 | 0.10 | 0.10 | 58 | 1011.9 |
| 20260509013514 | 5 | 191 | 0.0 | 0.0 | 0.00 | 0.10 | 0.10 | 58 | 1011.8 |
| 20260509013012 | 6 | 302 | 0.0 | 0.0 | 0.00 | 0.10 | 0.10 | 56 | 1011.7 |
| 20260509012513 | 6 | 302 | 0.0 | 0.0 | 0.00 | 0.10 | 0.10 | 54 | 1011.7 |
| 20260509012012 | 6 | 302 | 0.0 | 0.0 | 0.00 | 0.10 | 0.10 | 52 | 1011.5 |
| 20260509011511 | 6 | 302 | 0.0 | 0.0 | 0.00 | 0.10 | 0.10 | 51 | 1011.5 |
| 20260509011011 | 6 | 302 | 0.0 | 0.0 | 0.00 | 0.10 | 0.10 | 51 | 1011.5 |
| 20260509010511 | 6 | 302 | 0.0 | 0.0 | 0.00 | 0.10 | 0.10 | 53 | 1011.4 |
| 20260509010017 | 6 | 302 | 0.0 | 0.0 | 0.00 | 0.10 | 0.10 | 53 | 1011.4 |
| 20260509005511 | 7 | 302 | 0.0 | 0.0 | 0.00 | 0.10 | 0.10 | 48 | 1011.3 |
| 20260509005013 | 7 | 302 | 0.0 | 0.0 | 0.00 | 0.10 | 0.10 | 49 | 1011.3 |
| 20260509004511 | 7 | 302 | 0.0 | 0.0 | 0.00 | 0.10 | 0.10 | 50 | 1011.2 |
| 20260509004011 | 7 | 302 | 0.0 | 0.0 | 0.00 | 0.10 | 0.10 | 49 | 1011.1 |
| 20260509003511 | 7 | 302 | 0.0 | 0.0 | 0.00 | 0.10 | 0.10 | 50 | 1011.1 |
| 20260509003018 | 8 | 302 | 0.0 | 0.0 | 0.00 | 0.10 | 0.10 | 50 | 1011.0 |
| 20260509002510 | 8 | 302 | 0.0 | 0.0 | 0.00 | 0.10 | 0.10 | 49 | 1011.0 |
| 20260509002010 | 8 | 302 | 0.0 | 0.0 | 0.00 | 0.10 | 0.10 | 48 | 1010.9 |
| 20260509001511 | 9 | 302 | 0.0 | 0.0 | 0.00 | 0.10 | 0.10 | 47 | 1010.9 |
| 20260509001010 | 10 | 302 | 0.0 | 0.0 | 0.00 | 0.10 | 0.10 | 46 | 1010.8 |
| 20260509000509 | 10 | 302 | 0.0 | 0.0 | 0.00 | 0.10 | 0.10 | 45 | 1010.9 |
| 20260509000010 | 11 | 302 | 0.0 | 0.0 | 0.00 | 0.10 | 0.10 | 40 | 1010.9 |
| 20260508235511 | 11 | 302 | 0.0 | 0.0 | 0.00 | 0.10 | 0.10 | 43 | 1010.9 |
| 20260508235108 | 11 | 302 | 0.0 | 0.0 | 0.00 | 0.10 | 0.10 | 43 | 1010.8 |
| 20260508234508 | 12 | 302 | 0.0 | 0.0 | 0.00 | 0.10 | 0.10 | 43 | 1010.7 |
| 20260508234008 | 12 | 302 | 0.0 | 0.0 | 0.00 | 0.10 | 0.10 | 41 | 1010.6 |
| 20260508233512 | 12 | 302 | 0.0 | 0.0 | 0.00 | 0.10 | 0.10 | 39 | 1010.6 |
| 20260508233008 | 12 | 302 | 0.0 | 0.0 | 0.00 | 0.10 | 0.10 | 34 | 1010.6 |
| 20260508232507 | 12 | 302 | 0.0 | 0.0 | 0.00 | 0.10 | 0.10 | 36 | 1010.5 |
| 20260508232007 | 12 | 302 | 0.0 | 4.8 | 0.00 | 0.10 | 0.10 | 33 | 1010.6 |
| 20260508231508 | 13 | 302 | 0.0 | 4.8 | 0.00 | 0.10 | 0.10 | 31 | 1010.5 |
| 20260508231006 | 13 | 304 | 0.0 | 3.2 | 0.00 | 0.10 | 0.10 | 30 | 1010.6 |
| 20260508230506 | 13 | 303 | 0.0 | 4.8 | 0.00 | 0.10 | 0.10 | 34 | 1010.6 |
| 20260508230007 | 13 | 295 | 0.0 | 4.8 | 0.00 | 0.10 | 0.10 | 29 | 1010.6 |
| 20260508225508 | 13 | 317 | 0.0 | 3.2 | 0.00 | 0.10 | 0.10 | 32 | 1010.6 |
| 20260508225007 | 13 | 307 | 0.0 | 3.2 | 0.00 | 0.10 | 0.10 | 30 | 1010.7 |
| 20260508224511 | 13 | 307 | 0.0 | 4.8 | 0.00 | 0.10 | 0.10 | 33 | 1010.6 |
| 20260508224005 | 13 | 301 | 0.0 | 4.8 | 0.00 | 0.10 | 0.10 | 30 | 1010.6 |
| 20260508223505 | 13 | 295 | 0.0 | 3.2 | 0.00 | 0.10 | 0.10 | 30 | 1010.6 |
| 20260508223015 | 13 | 300 | 0.0 | 6.4 | 0.00 | 0.10 | 0.10 | 31 | 1010.6 |
| 20260508222505 | 13 | 285 | 3.2 | 6.4 | 0.00 | 0.10 | 0.10 | 32 | 1010.6 |
| 20260508222003 | 13 | 294 | 1.6 | 6.4 | 0.00 | 0.10 | 0.10 | 32 | 1010.6 |
| 20260508221504 | 12 | 266 | 1.6 | 11.3 | 0.00 | 0.10 | 0.10 | 33 | 1010.5 |
| 20260508221006 | 12 | 282 | 4.8 | 11.3 | 0.00 | 0.10 | 0.10 | 31 | 1010.6 |
| 20260508220504 | 13 | 304 | 4.8 | 12.9 | 0.00 | 0.10 | 0.10 | 33 | 1010.6 |
| 20260508220002 | 13 | 308 | 1.6 | 12.9 | 0.00 | 0.10 | 0.10 | 33 | 1010.6 |
| 20260508215502 | 13 | 23 | 1.6 | 12.9 | 0.00 | 0.10 | 0.10 | 30 | 1010.6 |
| 20260508215002 | 13 | 324 | 1.6 | 11.3 | 0.00 | 0.10 | 0.10 | 34 | 1010.7 |
| 20260508214502 | 13 | 348 | 4.8 | 11.3 | 0.00 | 0.10 | 0.10 | 33 | 1010.7 |
| 20260508214100 | 13 | 302 | 0.0 | 6.4 | 0.00 | 0.10 | 0.10 | 35 | 1010.8 |
| 20260508213600 | 13 | 63 | 1.6 | 6.4 | 0.00 | 0.10 | 0.10 | 30 | 1010.8 |
| 20260508213100 | 13 | 274 | 1.6 | 6.4 | 0.00 | 0.10 | 0.10 | 31 | 1010.8 |
| 20260508212559 | 12 | 221 | 0.0 | 11.3 | 0.00 | 0.10 | 0.10 | 32 | 1010.7 |
| 20260508212059 | 12 | 281 | 3.2 | 11.3 | 0.00 | 0.10 | 0.10 | 31 | 1010.8 |
| 20260508211601 | 12 | 250 | 3.2 | 11.3 | 0.00 | 0.10 | 0.10 | 34 | 1010.9 |
| 20260508211058 | 12 | 311 | 4.8 | 11.3 | 0.00 | 0.10 | 0.10 | 33 | 1010.9 |
| 20260508210558 | 12 | 321 | 4.8 | 9.7 | 0.00 | 0.10 | 0.10 | 34 | 1010.8 |
| 20260508210100 | 13 | 274 | 3.2 | 11.3 | 0.00 | 0.10 | 0.10 | 33 | 1010.9 |
| 20260508205557 | 13 | 280 | 4.8 | 11.3 | 0.00 | 0.10 | 0.10 | 31 | 1010.8 |
| 20260508205056 | 13 | 319 | 0.0 | 6.4 | 0.00 | 0.10 | 0.10 | 34 | 1010.9 |
| 20260508204601 | 13 | 337 | 0.0 | 8.0 | 0.00 | 0.10 | 0.10 | 35 | 1011.0 |
| 20260508204054 | 12 | 327 | 0.0 | 11.3 | 0.00 | 0.10 | 0.10 | 38 | 1011.0 |
| 20260508203553 | 12 | 264 | 1.6 | 8.0 | 0.00 | 0.10 | 0.10 | 37 | 1011.2 |
| 20260508203059 | 12 | 284 | 3.2 | 17.7 | 0.00 | 0.10 | 0.10 | 34 | 1011.3 |
| 20260508202552 | 12 | 22 | 3.2 | 17.7 | 0.00 | 0.10 | 0.10 | 38 | 1011.3 |
| 20260508202052 | 12 | 248 | 6.4 | 14.5 | 0.00 | 0.10 | 0.10 | 38 | 1011.5 |
| 20260508201553 | 12 | 288 | 3.2 | 17.7 | 0.00 | 0.10 | 0.10 | 34 | 1011.4 |
| 20260508201049 | 12 | 319 | 4.8 | 19.3 | 0.00 | 0.10 | 0.10 | 40 | 1011.6 |
| 20260508200549 | 12 | 333 | 9.7 | 16.1 | 0.00 | 0.10 | 0.10 | 39 | 1011.7 |
| 20260508200049 | 12 | 331 | 6.4 | 16.1 | 0.00 | 0.10 | 0.10 | 36 | 1011.8 |
| 20260508195548 | 11 | 316 | 6.4 | 14.5 | 0.00 | 0.10 | 0.10 | 37 | 1011.8 |
| 20260508195047 | 11 | 299 | 6.4 | 20.9 | 0.00 | 0.10 | 0.10 | 36 | 1011.8 |
| 20260508194554 | 11 | 255 | 9.7 | 20.9 | 0.00 | 0.10 | 0.10 | 37 | 1011.9 |
| 20260508194046 | 11 | 255 | 3.2 | 12.9 | 0.00 | 0.10 | 0.10 | 41 | 1011.9 |
| 20260508193546 | 11 | 270 | 1.6 | 11.3 | 0.00 | 0.10 | 0.10 | 36 | 1012.0 |
| 20260508193102 | 11 | 297 | 1.6 | 16.1 | 0.00 | 0.10 | 0.10 | 40 | 1012.1 |
| 20260508192546 | 11 | 307 | 8.0 | 16.1 | 0.00 | 0.10 | 0.10 | 43 | 1012.1 |
| 20260508192046 | 11 | 297 | 8.0 | 14.5 | 0.00 | 0.10 | 0.10 | 39 | 1012.2 |
| 20260508191546 | 11 | 321 | 4.8 | 17.7 | 0.00 | 0.10 | 0.10 | 40 | 1012.2 |
| 20260508191045 | 11 | 317 | 4.8 | 19.3 | 0.00 | 0.10 | 0.10 | 43 | 1012.2 |
| 20260508190545 | 10 | 306 | 11.3 | 19.3 | 0.00 | 0.10 | 0.10 | 39 | 1012.2 |
| 20260508190045 | 10 | 255 | 4.8 | 14.5 | 0.00 | 0.10 | 0.10 | 41 | 1012.2 |
| 20260508185543 | 11 | 243 | 8.0 | 19.3 | 0.00 | 0.10 | 0.10 | 41 | 1012.1 |
| 20260508185043 | 11 | 279 | 8.0 | 14.5 | 0.00 | 0.10 | 0.10 | 40 | 1012.1 |
| 20260508184553 | 11 | 30 | 3.2 | 12.9 | 0.00 | 0.10 | 0.10 | 45 | 1012.1 |
| 20260508184041 | 11 | 302 | 4.8 | 14.5 | 0.00 | 0.10 | 0.10 | 44 | 1012.1 |
| 20260508183540 | 10 | 296 | 6.4 | 20.9 | 0.00 | 0.10 | 0.10 | 41 | 1012.1 |
| 20260508183041 | 10 | 255 | 11.3 | 20.9 | 0.00 | 0.10 | 0.10 | 42 | 1012.2 |
| 20260508182540 | 10 | 288 | 8.0 | 19.3 | 0.00 | 0.10 | 0.10 | 44 | 1012.3 |
| 20260508182039 | 10 | 272 | 11.3 | 19.3 | 0.00 | 0.10 | 0.10 | 42 | 1012.3 |
| 20260508181544 | 10 | 295 | 3.2 | 12.9 | 0.00 | 0.10 | 0.10 | 44 | 1012.4 |
| 20260508181038 | 10 | 300 | 4.8 | 17.7 | 0.00 | 0.10 | 0.10 | 47 | 1012.4 |
| 20260508180537 | 10 | 275 | 8.0 | 17.7 | 0.00 | 0.10 | 0.10 | 46 | 1012.4 |
| 20260508180040 | 10 | 264 | 9.7 | 16.1 | 0.00 | 0.10 | 0.10 | 47 | 1012.5 |
| 20260508175537 | 10 | 249 | 4.8 | 16.1 | 0.00 | 0.10 | 0.10 | 44 | 1012.5 |
| 20260508175038 | 10 | 287 | 8.0 | 16.1 | 0.00 | 0.10 | 0.10 | 50 | 1012.6 |
| 20260508174537 | 10 | 272 | 4.8 | 25.7 | 0.00 | 0.10 | 0.10 | 45 | 1012.7 |
| 20260508174034 | 10 | 268 | 8.0 | 19.3 | 0.00 | 0.10 | 0.10 | 49 | 1012.7 |
| 20260508173535 | 9 | 293 | 8.0 | 24.1 | 0.00 | 0.10 | 0.10 | 48 | 1012.7 |
| 20260508173033 | 9 | 259 | 8.0 | 24.1 | 0.00 | 0.10 | 0.10 | 52 | 1012.8 |
| 20260508172533 | 8 | 287 | 6.4 | 20.9 | 0.00 | 0.10 | 0.10 | 49 | 1012.8 |
| 20260508172036 | 9 | 258 | 8.0 | 20.9 | 0.00 | 0.10 | 0.10 | 49 | 1012.9 |
| 20260508171540 | 8 | 307 | 6.4 | 16.1 | 0.00 | 0.10 | 0.10 | 52 | 1012.9 |
| 20260508171030 | 9 | 280 | 4.8 | 16.1 | 0.00 | 0.10 | 0.10 | 52 | 1013.0 |
| 20260508170529 | 8 | 242 | 6.4 | 14.5 | 0.00 | 0.10 | 0.10 | 52 | 1013.0 |
| 20260508170030 | 8 | 288 | 3.2 | 12.9 | 0.00 | 0.10 | 0.10 | 56 | 1013.0 |
| 20260508165529 | 8 | 233 | 6.4 | 12.9 | 0.00 | 0.10 | 0.10 | 54 | 1013.1 |
| 20260508165028 | 8 | 220 | 3.2 | 11.3 | 0.00 | 0.10 | 0.10 | 54 | 1013.1 |
| 20260508164528 | 8 | 272 | 4.8 | 12.9 | 0.00 | 0.10 | 0.10 | 57 | 1013.1 |
| 20260508164031 | 8 | 300 | 6.4 | 14.5 | 0.00 | 0.10 | 0.10 | 55 | 1013.1 |
| 20260508163528 | 8 | 257 | 6.4 | 14.5 | 0.00 | 0.10 | 0.10 | 55 | 1013.3 |
| 20260508163027 | 8 | 276 | 6.4 | 20.9 | 0.00 | 0.10 | 0.10 | 58 | 1013.3 |
| 20260508162527 | 7 | 236 | 12.9 | 20.9 | 0.00 | 0.10 | 0.10 | 55 | 1013.3 |
| 20260508162026 | 8 | 281 | 6.4 | 12.9 | 0.00 | 0.10 | 0.10 | 57 | 1013.3 |
| 20260508161527 | 7 | 255 | 4.8 | 14.5 | 0.00 | 0.10 | 0.10 | 60 | 1013.4 |
| 20260508161023 | 7 | 263 | 6.4 | 16.1 | 0.00 | 0.10 | 0.10 | 58 | 1013.4 |
| 20260508160522 | 7 | 236 | 9.7 | 17.7 | 0.00 | 0.10 | 0.10 | 57 | 1013.4 |
| 20260508160048 | 7 | 245 | 8.0 | 14.5 | 0.00 | 0.10 | 0.10 | 58 | 1013.5 |
| 20260508155524 | 7 | 226 | 9.7 | 14.5 | 0.00 | 0.10 | 0.10 | 59 | 1013.5 |
| 20260508155022 | 6 | 260 | 4.8 | 14.5 | 0.00 | 0.10 | 0.10 | 59 | 1013.5 |
| 20260508154522 | 6 | 236 | 6.4 | 14.5 | 0.00 | 0.10 | 0.10 | 59 | 1013.4 |
| 20260508154023 | 7 | 255 | 4.8 | 12.9 | 0.00 | 0.10 | 0.10 | 61 | 1013.4 |
| 20260508153520 | 6 | 239 | 4.8 | 11.3 | 0.00 | 0.10 | 0.10 | 60 | 1013.4 |
| 20260508153019 | 6 | 229 | 6.4 | 12.9 | 0.00 | 0.10 | 0.10 | 60 | 1013.4 |
| 20260508152522 | 6 | 246 | 4.8 | 12.9 | 0.00 | 0.10 | 0.10 | 61 | 1013.4 |
| 20260508152021 | 6 | 299 | 3.2 | 8.0 | 0.00 | 0.10 | 0.10 | 61 | 1013.4 |
| 20260508151518 | 6 | 309 | 1.6 | 6.4 | 0.00 | 0.10 | 0.10 | 62 | 1013.3 |
| 20260508151017 | 6 | 266 | 3.2 | 8.0 | 0.00 | 0.10 | 0.10 | 64 | 1013.3 |
| 20260508150515 | 5 | 224 | 4.8 | 8.0 | 0.00 | 0.10 | 0.10 | 63 | 1013.4 |
| 20260508150019 | 5 | 263 | 3.2 | 8.0 | 0.00 | 0.10 | 0.10 | 63 | 1013.3 |
| 20260508145515 | 5 | 269 | 1.6 | 6.4 | 0.00 | 0.10 | 0.10 | 63 | 1013.4 |
| 20260508145017 | 5 | 210 | 3.2 | 6.4 | 0.00 | 0.10 | 0.10 | 64 | 1013.4 |
| 20260508144514 | 5 | 262 | 1.6 | 6.4 | 0.00 | 0.10 | 0.10 | 64 | 1013.4 |
| 20260508144014 | 4 | 264 | 3.2 | 8.0 | 0.00 | 0.10 | 0.10 | 65 | 1013.4 |
| 20260508143516 | 4 | 261 | 3.2 | 9.7 | 0.00 | 0.10 | 0.10 | 65 | 1013.3 |
| 20260508143013 | 4 | 240 | 4.8 | 9.7 | 0.03 | 0.10 | 0.10 | 65 | 1013.4 |
| 20260508142517 | 4 | 258 | 4.8 | 9.7 | 0.03 | 0.10 | 0.10 | 65 | 1013.4 |
| 20260508142013 | 4 | 264 | 4.8 | 8.0 | 0.03 | 0.10 | 0.10 | 65 | 1013.5 |
| 20260508141516 | 4 | 288 | 3.2 | 6.4 | 0.03 | 0.10 | 0.10 | 66 | 1013.2 |
| 20260508141012 | 3 | 273 | 1.6 | 6.4 | 0.03 | 0.10 | 0.10 | 66 | 1013.2 |
| 20260508140513 | 3 | 245 | 1.6 | 6.4 | 0.05 | 0.10 | 0.10 | 65 | 1013.1 |
| 20260508140018 | 3 | 167 | 1.6 | 11.3 | 0.05 | 0.10 | 0.10 | 67 | 1013.1 |
| 20260508135516 | 3 | 237 | 4.8 | 11.3 | 0.05 | 0.10 | 0.10 | 66 | 1013.2 |
| 20260508135013 | 3 | 225 | 3.2 | 11.3 | 0.05 | 0.10 | 0.10 | 66 | 1013.4 |
| 20260508134527 | 3 | 266 | 3.2 | 9.7 | 0.05 | 0.10 | 0.10 | 66 | 1013.3 |
| 20260508134014 | 3 | 245 | 4.8 | 9.7 | 0.08 | 0.10 | 0.10 | 66 | 1013.3 |
| 20260508133510 | 3 | 243 | 4.8 | 9.7 | 0.08 | 0.10 | 0.10 | 66 | 1013.4 |
| 20260508133015 | 3 | 275 | 3.2 | 8.0 | 0.08 | 0.08 | 0.08 | 66 | 1013.3 |
| 20260508132510 | 3 | 286 | 3.2 | 9.7 | 0.08 | 0.08 | 0.08 | 65 | 1013.4 |
| 20260508132009 | 3 | 299 | 3.2 | 9.7 | 0.08 | 0.08 | 0.08 | 66 | 1013.5 |
| 20260508131510 | 3 | 295 | 3.2 | 6.4 | 0.08 | 0.08 | 0.08 | 66 | 1013.5 |
| 20260508131009 | 3 | 282 | 0.0 | 3.2 | 0.08 | 0.08 | 0.08 | 66 | 1013.4 |
| 20260508130507 | 3 | 276 | 1.6 | 6.4 | 0.05 | 0.05 | 0.05 | 65 | 1013.4 |
| 20260508130007 | 3 | 269 | 1.6 | 6.4 | 0.05 | 0.05 | 0.05 | 65 | 1013.3 |
| 20260508125507 | 3 | 275 | 1.6 | 8.0 | 0.05 | 0.05 | 0.05 | 65 | 1013.3 |
| 20260508125007 | 3 | 241 | 0.0 | 9.7 | 0.05 | 0.05 | 0.05 | 64 | 1013.3 |
| 20260508124510 | 3 | 233 | 1.6 | 12.9 | 0.05 | 0.05 | 0.05 | 64 | 1013.2 |
| 20260508124005 | 3 | 337 | 4.8 | 12.9 | 0.03 | 0.03 | 0.03 | 63 | 1013.3 |
| 20260508123504 | 4 | 316 | 3.2 | 12.9 | 0.03 | 0.03 | 0.03 | 64 | 1013.3 |
| 20260508123004 | 4 | 294 | 4.8 | 12.9 | 0.00 | 0.00 | 0.00 | 63 | 1013.2 |
| 20260508122506 | 4 | 319 | 6.4 | 12.9 | 0.00 | 0.00 | 0.00 | 63 | 1012.9 |
| 20260508122002 | 5 | 355 | 6.4 | 11.3 | 0.00 | 0.00 | 0.00 | 62 | 1012.7 |
| 20260508121504 | 5 | 301 | 3.2 | 9.7 | 0.00 | 0.00 | 0.00 | 61 | 1012.6 |
| 20260508121002 | 5 | 306 | 1.6 | 9.7 | 0.00 | 0.00 | 0.00 | 62 | 1012.6 |
| 20260508120600 | 5 | 284 | 0.0 | 6.4 | 0.00 | 0.00 | 0.00 | 61 | 1012.5 |
| 20260508120100 | 5 | 300 | 0.0 | 8.0 | 0.00 | 0.00 | 0.00 | 61 | 1012.4 |
| 20260508115600 | 5 | 279 | 1.6 | 12.9 | 0.00 | 0.00 | 0.00 | 60 | 1012.3 |
| 20260508115101 | 5 | 274 | 4.8 | 11.3 | 0.00 | 0.00 | 0.00 | 60 | 1012.3 |
| 20260508114559 | 5 | 269 | 3.2 | 9.7 | 0.00 | 0.00 | 0.00 | 61 | 1012.3 |
| 20260508114059 | 5 | 278 | 3.2 | 8.0 | 0.00 | 0.00 | 0.00 | 61 | 1012.2 |
| 20260508113559 | 5 | 263 | 0.0 | 4.8 | 0.00 | 0.00 | 0.00 | 61 | 1012.0 |
| 20260508113107 | 5 | 266 | 1.6 | 6.4 | 0.00 | 0.00 | 0.00 | 61 | 1012.0 |
| 20260508112558 | 5 | 261 | 1.6 | 6.4 | 0.00 | 0.00 | 0.00 | 61 | 1011.9 |
| 20260508112100 | 5 | 224 | 0.0 | 4.8 | 0.00 | 0.00 | 0.00 | 61 | 1011.6 |
| 20260508111604 | 5 | 147 | 0.0 | 8.0 | 0.00 | 0.00 | 0.00 | 61 | 1011.5 |
| 20260508111102 | 5 | 226 | 1.6 | 8.0 | 0.00 | 0.00 | 0.00 | 60 | 1011.6 |
| 20260508110559 | 5 | 217 | 3.2 | 8.0 | 0.00 | 0.00 | 0.00 | 61 | 1011.7 |
| 20260508105558 | 5 | 225 | 3.2 | 8.0 | 0.00 | 0.00 | 0.00 | 61 | 1011.7 |
| 20260508105100 | 5 | 193 | 3.2 | 8.0 | 0.00 | 0.00 | 0.00 | 62 | 1011.8 |
| 20260508104556 | 5 | 213 | 1.6 | 6.4 | 0.00 | 0.00 | 0.00 | 63 | 1011.6 |
| 20260508104056 | 5 | 195 | 3.2 | 6.4 | 0.00 | 0.00 | 0.00 | 62 | 1011.3 |
| 20260508103556 | 5 | 180 | 3.2 | 6.4 | 0.00 | 0.00 | 0.00 | 62 | 1011.3 |
| 20260508103103 | 5 | 163 | 3.2 | 8.0 | 0.00 | 0.00 | 0.00 | 62 | 1011.5 |
| 20260508102555 | 5 | 182 | 3.2 | 8.0 | 0.00 | 0.00 | 0.00 | 62 | 1011.5 |
| 20260508102055 | 5 | 152 | 1.6 | 8.0 | 0.00 | 0.00 | 0.00 | 62 | 1011.6 |
| 20260508101556 | 5 | 214 | 4.8 | 8.0 | 0.00 | 0.00 | 0.00 | 62 | 1011.7 |
| 20260508101055 | 5 | 231 | 3.2 | 8.0 | 0.00 | 0.00 | 0.00 | 63 | 1011.9 |
| 20260508100554 | 5 | 229 | 3.2 | 8.0 | 0.00 | 0.00 | 0.00 | 63 | 1011.9 |
| 20260508100053 | 5 | 210 | 3.2 | 8.0 | 0.00 | 0.00 | 0.00 | 63 | 1011.6 |
| 20260508095553 | 5 | 220 | 1.6 | 9.7 | 0.00 | 0.00 | 0.00 | 63 | 1011.9 |
| 20260508095056 | 4 | 233 | 3.2 | 9.7 | 0.00 | 0.00 | 0.00 | 63 | 1012.1 |
| 20260508094605 | 4 | 220 | 3.2 | 8.0 | 0.00 | 0.00 | 0.00 | 63 | 1012.1 |
| 20260508094052 | 4 | 259 | 3.2 | 9.7 | 0.00 | 0.00 | 0.00 | 63 | 1012.2 |
| 20260508093554 | 4 | 228 | 4.8 | 12.9 | 0.00 | 0.00 | 0.00 | 63 | 1012.1 |
| 20260508093053 | 4 | 193 | 3.2 | 12.9 | 0.00 | 0.00 | 0.00 | 63 | 1012.2 |
| 20260508092551 | 4 | 226 | 3.2 | 11.3 | 0.00 | 0.00 | 0.00 | 64 | 1012.2 |
| 20260508092051 | 4 | 215 | 6.4 | 9.7 | 0.00 | 0.00 | 0.00 | 64 | 1012.2 |
| 20260508091555 | 4 | 229 | 3.2 | 9.7 | 0.00 | 0.00 | 0.00 | 64 | 1012.2 |
| 20260508091051 | 4 | 218 | 4.8 | 9.7 | 0.00 | 0.00 | 0.00 | 65 | 1012.0 |
| 20260508090554 | 4 | 217 | 3.2 | 8.0 | 0.00 | 0.00 | 0.00 | 65 | 1012.0 |
| 20260508090051 | 3 | 237 | 3.2 | 8.0 | 0.00 | 0.00 | 0.00 | 66 | 1012.0 |
| 20260508085550 | 3 | 219 | 3.2 | 8.0 | 0.00 | 0.00 | 0.00 | 66 | 1012.1 |
| 20260508085051 | 3 | 229 | 3.2 | 8.0 | 0.00 | 0.00 | 0.00 | 66 | 1012.2 |
| 20260508084550 | 3 | 208 | 3.2 | 9.7 | 0.00 | 0.00 | 0.00 | 67 | 1012.1 |
| 20260508084051 | 3 | 230 | 3.2 | 9.7 | 0.00 | 0.00 | 0.00 | 67 | 1012.2 |
| 20260508083549 | 3 | 240 | 3.2 | 8.0 | 0.00 | 0.00 | 0.00 | 67 | 1012.2 |
| 20260508083130 | 3 | 207 | 3.2 | 8.0 | 0.00 | 0.00 | 0.00 | 67 | 1012.0 |
| 20260508082548 | 3 | 239 | 1.6 | 6.4 | 0.00 | 0.00 | 0.00 | 67 | 1011.9 |
| 20260508082049 | 3 | 226 | 3.2 | 6.4 | 0.00 | 0.00 | 0.00 | 67 | 1011.9 |
| 20260508081554 | 3 | 199 | 1.6 | 8.0 | 0.00 | 0.00 | 0.00 | 67 | 1011.8 |
| 20260508081047 | 3 | 210 | 3.2 | 8.0 | 0.00 | 0.00 | 0.00 | 67 | 1011.9 |
| 20260508080546 | 3 | 234 | 3.2 | 8.0 | 0.00 | 0.00 | 0.00 | 67 | 1011.8 |
| 20260508080058 | 3 | 204 | 4.8 | 8.0 | 0.00 | 0.00 | 0.00 | 67 | 1011.7 |
| 20260508075547 | 3 | 219 | 3.2 | 8.0 | 0.00 | 0.00 | 0.00 | 67 | 1011.7 |
| 20260508075044 | 3 | 184 | 3.2 | 12.9 | 0.00 | 0.00 | 0.00 | 67 | 1012.0 |
| 20260508074544 | 3 | 222 | 4.8 | 12.9 | 0.00 | 0.00 | 0.00 | 67 | 1011.9 |
| 20260508074044 | 3 | 255 | 3.2 | 8.0 | 0.00 | 0.00 | 0.00 | 67 | 1011.8 |
| 20260508073544 | 3 | 275 | 1.6 | 8.0 | 0.00 | 0.00 | 0.00 | 67 | 1011.7 |
| 20260508073047 | 3 | 243 | 1.6 | 6.4 | 0.00 | 0.00 | 0.00 | 67 | 1011.8 |
| 20260508072544 | 3 | 246 | 1.6 | 6.4 | 0.00 | 0.00 | 0.00 | 67 | 1011.8 |
| 20260508072042 | 3 | 214 | 3.2 | 9.7 | 0.00 | 0.00 | 0.00 | 67 | 1011.8 |
| 20260508071544 | 3 | 259 | 4.8 | 9.7 | 0.00 | 0.00 | 0.00 | 67 | 1012.0 |
| 20260508071040 | 3 | 238 | 4.8 | 9.7 | 0.00 | 0.00 | 0.00 | 67 | 1012.0 |
| 20260508070539 | 3 | 248 | 4.8 | 8.0 | 0.00 | 0.00 | 0.00 | 67 | 1012.0 |
| 20260508070039 | 3 | 198 | 0.0 | 8.0 | 0.00 | 0.00 | 0.00 | 67 | 1012.0 |
| 20260508065541 | 3 | 205 | 3.2 | 8.0 | 0.00 | 0.00 | 0.00 | 66 | 1011.9 |
| 20260508065038 | 3 | 230 | 3.2 | 8.0 | 0.00 | 0.00 | 0.00 | 67 | 1011.9 |